COSMOS 1285 DEB, 12993

Orbit data source: Space-Track

COSMOS 1285 DEB, 12993 is space debris in HEO originally from a launch on Tue, 04 Aug 1981 UTC launched from the Plesetsk Missile And Space Complex (PKMTR). Debris objects in space refer to the collection of defunct objects orbiting the Earth. Examples of debris include non-operational satellites, rocket bodies, and fragments generated from explosions, collisions, or faulty payload assembly.

Loading next visibility...
COSMOS 1285 DEB details
Identifier
12993, 1981-071E
Orbit
HEO
Last TLE update17 hours ago
Origin
Flag of CISGUKOS (CIS)
ManufacturerUnknown
MissionSpacecraft
Bus & MotorUnknown
MassUnknown
Launch date (UTC)
1981-08-04 (43 years ago)
Launch vehicleUnknown
Launch site
Plesetsk Missile And Space Complex (PKMTR)
Object type
Payload
Rocket body
Debris
Shape & HBRUnknown
Radar Cross SectionLarge (>1 m²)

Expand to show TLE details & history

TLE from 17 hours ago
0 COSMOS 1285 DEB
1 12993U 81071E   24361.26657643 -.00000666  00000-0  00000+0 0  9994
2 12993  66.7618 125.4924 6608495  16.8943 357.1826  1.97860517227542
Epoch: 2024-12-26T06:23Z
Definitive object data (Epoch: 2024-12-26T06:23:52.203Z)
Latitude-0.0001°
Longitude-65.72413°
Altitude2,864.743 km
Speed8.449 km/s
True Right ascension08h 21m 58s
True Declination0° 00' 00"
Sunlit
Object was in full shadow at TLE epoch
Visualization TLE readout
Latitude-6.6406°
Longitude117.07987°
Altitude36,957.325 km
Speed1.877 km/s
Apparent Right ascension20h 16m 38s
Apparent Declination-13° 03' 21"
Sunlit
Object is in daylight
Visualization observer readout
Local Sidereal Time22:53:59
Azimuth223.24° SW
Elevation25.652°
Doppler factor1
Orbital elements
Apogee altitude38,133.768 km
Perigee altitude2,711.329 km
Semi-major axis26,800.685 km
Eccentricity0.6608495
Inclination66.7618°
RAAN125.4924°
Arg. of periapsis16.8943°
True anomaly341.86092°
Mean anomaly357.1826°
Eccentric anomaly351.7483°
Mean motion0.49468 °/min
BSTARUnknown
Orbital period727.74 mins
Loading maneuver chart data...
Loading historical data...
Loading historical data...
Loading historical data...
Loading historical data...
Loading historical data...
Loading historical data...
Loading historical data...

COSMOS 1285 DEB Visibility forecast

Observer location: undefined°, undefined

Span
Click to sort rows by Start time (UTC) header in descending order
Start Az.
Max El. time (UTC)
Max El. Az.
Max El.
End time (UTC)
End Az.
70 mins2024-12-26 23:30:39.750Z223.228° SW2024-12-26 23:30:39.750Z223.228° SW23.4°2024-12-27 00:40:39.750Z229.907° WSW
250 mins2024-12-27 19:20:39.750Z329.065° NNW2024-12-27 20:12:39.750Z263.693° W44.524°2024-12-27 23:30:39.750Z226.559° WSW
|